Regional Weather Roundup
Issued by NWS

Home | Current Version | Previous Version | Graphics & Text | Print | Product List | Glossary On
Versions: 1 2 3 4 5 6 7 8 9 10 11 12 13 14 15 16 17 18 19 20 21 22 23 24 25 26 27 28 29 30 31 32 33 34 35 36 37 38 39 40 41 42 43 44 45 46 47 48 49 50
667
ASUS43 KTOP 241908
RWRKS

WEATHER ROUNDUP FOR KANSAS
NATIONAL WEATHER SERVICE GOODLAND KS
200 PM CDT MON APR 24 2017

NOTE:  "FAIR" INDICATES FEW OR NO CLOUDS BELOW 12,000 FEET WITH NO
SIGNIFICANT WEATHER AND/OR OBSTRUCTIONS TO VISIBILITY.

KSZ001>006-013>018-027>032-041>047-242000-
NORTHWEST KANSAS

CITY           SKY/WX    TMP DP  RH WIND       PRES   REMARKS
GOODLAND       SUNNY     71  41  33 N14       29.62S
HAYS           SUNNY     76  47  35 W16       29.52F
HILL CITY      SUNNY     77  42  28 N14G22    29.54F
RUSSELL        SUNNY     76  43  30 SW25G32   29.52F
$$

KSZ061>065-074>080-084>089-242000-
SOUTHWEST KANSAS

CITY           SKY/WX    TMP DP  RH WIND       PRES   REMARKS
DODGE CITY     MOSUNNY   78  43  28 VRB3      29.59F
ELKHART          N/A     79  38  23 W7          N/A
GARDEN CITY    SUNNY     76  42  29 NE8       29.60F
GREAT BEND     SUNNY     74  46  36 SW23G33   29.56F
PRATT          SUNNY     73  44  35 S20G35    29.59F
$$

KSZ066>073-081>083-090>101-242000-
SOUTHEAST KANSAS

CITY           SKY/WX    TMP DP  RH WIND       PRES   REMARKS
CHANUTE        SUNNY     71  43  36 S23G32    29.73F
COFFEYVILLE    SUNNY     72  45  37 S20G29    29.75F
HUTCHINSON     SUNNY     73  46  38 S29G41    29.59F
MEDICINE LODGE   N/A     75  43  31 S23G37    29.58F
NEWTON         MOSUNNY   70  48  45 S31G40    29.61F
PARSONS        SUNNY     71  41  33 S13G28    29.74F
WICHITA INTL   MOSUNNY   73  47  39 S29G40    29.63F
WICHITA JABRA  SUNNY     72  46  39 S30G40    29.63F
WICHITA MCCONL SUNNY     73  45  36 SW29G35   29.65F
WINFIELD       SUNNY     72  46  39 S20G33    29.68F
$$

KSZ007>012-019>026-033>040-048>060-102>105-242000-
NORTHEAST KANSAS

CITY           SKY/WX    TMP DP  RH WIND       PRES   REMARKS
CONCORDIA      CLOUDY    70  46  42 S28G36    29.56S
EMPORIA        SUNNY     70  43  37 S23G39    29.66F
LAWRENCE       SUNNY     73  39  29 SE25G36   29.70F
MANHATTAN      SUNNY     74  43  32 S29G41    29.60F
MARYSVILLE     CLOUDY    72  43  35 S28G33    29.58F
OLATHE IND     SUNNY     72  39  30 S21G29    29.74F
OLATHE EXE     SUNNY     70  40  33 S18G25    29.74F
SALINA         MOSUNNY   74  47  38 S25G43    29.57F
TOPEKA BILLARD SUNNY     73  42  32 S22G41    29.65F
TOPEKA FORBES  SUNNY     74  42  31 S21G35    29.64F
$$




USA.gov is the U.S. government's official web portal to all federal, state and local government web resources and services.